Погода в Томске

Россия / Томская область     56°29′04″N   84°56′51″E
темп.,
°C
ветер,
м/с
пор.,
м/с
влажн.,
%
обл.,
%
осадки,
мм/ч
давл.,
гПа
погр.,
м
7 мая, пт
пт701:00+14ю3975100 0.0 1000151
04:00+14юз21076100 0.0 999218
07:00+12сз51182100 0.0 1003713
10:00+14сз685483 0.0 10051138
13:00+17зсз683961 0.0 10062361
16:00+17зсз693282 0.0 10082815
19:00+16з593790 0.0 10102451
22:00+11з395398 0.0 1012255
8 мая, сб
сб801:00+9зсз26570 0.0 1015187
04:00+7зюз411635 0.0 1015334
07:00+8зюз413610 0.0 1016542
10:00+13з613435 0.0 10151861
13:00+17з7123688 0.0 10132654
16:00+16з9164775 0.0 10122416
19:00+14з6125742 0.1 10131826
22:00+7ссз246746 0.0 101685
9 мая, вс
вс901:00+5сз37745 0.0 1017301
04:00+3ссз27805 0.0 1018260
07:00+3ссз25765 0.0 1020300
10:00+8ссз34545 0.0 10201106
13:00+11ссз454323 0.0 10201666
16:00+13ссв453917 0.0 10201908
19:00+11св454417 0.0 10211506
22:00+6всв27695 0.0 1023184
10 мая, пн
пн1001:00+4св28815 0.0 1023188
04:00+2всв28835 0.0 1022176
07:00+4всв277154 0.0 1023266
10:00+8всв575162 0.0 10221342
13:00+12всв56405 0.0 10201677
16:00+14в573512 0.0 10182087
19:00+14всв4838100 0.0 10172175
22:00+10св51157100 0.0 1016481
11 мая, вт
вт1101:00+8всв41166100 0.0 1016501
04:00+7св41271100 0.0 1016459
07:00+7св51368100 0.0 1015637
10:00+11всв6105099 0.0 10151187
13:00+15всв6937100 0.0 10151767
16:00+16всв6833100 0.0 10142092
19:00+15св4739100 0.0 10151403
22:00+11св31052100 0.0 1016281